GW5366 Weather Reports


time (UTC)temp
C
wind
direction
speed
KPH
gust
KPH
rain 1hr
cm
rain 24hr
cm
rain mn
cm
humidity
%
barometer
mb
20260507172135 18 262 9.7 14.5 0.00 0.00 0.00 77 1016.8
20260507171635 18 335 4.8 6.4 0.00 0.00 0.00 79 1016.6
20260507171133 18 292 14.5 17.7 0.00 0.00 0.00 79 1016.7
20260507170630 17 348 0.0 9.7 0.00 0.00 0.00 79 1016.9
20260507170127 18 321 8.0 16.1 0.00 0.00 0.00 77 1016.9
20260507165622 18 137 1.6 4.8 0.00 0.00 0.00 78 1017.0
20260507165119 17 142 4.8 6.4 0.00 0.00 0.00 81 1017.0
20260507164615 17 246 0.0 9.7 0.00 0.00 0.00 81 1017.1
20260507164112 17 245 8.0 8.0 0.00 0.00 0.00 81 1017.1
20260507163609 17 79 0.0 6.4 0.00 0.00 0.00 82 1017.2
20260507163107 17 277 6.4 11.3 0.00 0.00 0.00 80 1017.0
20260507162608 17 345 3.2 4.8 0.00 0.00 0.00 82 1017.3
20260507162105 17 354 3.2 6.4 0.00 0.00 0.00 82 1017.2
20260507161601 17 145 0.0 3.2 0.00 0.00 0.00 83 1017.0
20260507161057 16 0 0.0 6.4 0.00 0.00 0.00 83 1017.2
20260507160554 16 265 0.0 9.7 0.00 0.00 0.00 83 1017.1
20260507160050 16 119 0.0 6.4 0.00 0.00 0.00 84 1017.1
20260507155545 17 213 6.4 8.0 0.00 0.00 0.00 83 1017.2
20260507155043 16 0 3.2 3.2 0.00 0.00 0.00 84 1017.2
20260507154540 16 50 0.0 4.8 0.00 0.00 0.00 84 1017.1
20260507154037 16 39 3.2 3.2 0.00 0.00 0.00 85 1017.3
20260507153534 16 283 1.6 3.2 0.00 0.00 0.00 84 1017.0
20260507153030 16 160 0.0 8.0 0.00 0.00 0.00 85 1017.0
20260507152526 16 319 1.6 4.8 0.00 0.00 0.00 85 1017.1
20260507152022 16 269 3.2 6.4 0.00 0.00 0.00 85 1017.1
20260507151518 16 358 1.6 3.2 0.00 0.00 0.00 86 1017.1
20260507151016 16 318 3.2 8.0 0.00 0.00 0.00 86 1017.0
20260507150512 16 240 0.0 3.2 0.00 0.00 0.00 86 1016.9
20260507150009 16 218 3.2 3.2 0.00 0.00 0.00 87 1016.9
20260507145504 16 235 0.0 4.8 0.00 0.00 0.00 86 1016.9
20260507145002 16 79 1.6 3.2 0.00 0.00 0.00 87 1016.8
20260507144458 16 8 0.0 3.2 0.00 0.00 0.00 88 1016.8
20260507143955 16 14 1.6 6.4 0.00 0.00 0.00 87 1017.0
20260507143453 16 290 3.2 8.0 0.00 0.00 0.00 88 1016.8
20260507142949 16 336 3.2 4.8 0.00 0.00 0.00 88 1016.8
20260507142445 15 212 0.0 4.8 0.00 0.00 0.00 88 1016.7
20260507141943 16 257 4.8 6.4 0.00 0.00 0.00 88 1016.6
20260507141438 16 54 0.0 3.2 0.00 0.00 0.00 88 1016.5
20260507140935 15 286 1.6 3.2 0.00 0.00 0.00 88 1016.8
20260507140432 15 89 0.0 3.2 0.00 0.00 0.00 89 1016.5
20260507135930 15 60 0.0 1.6 0.00 0.00 0.00 89 1016.5
20260507135426 15 83 0.0 3.2 0.00 0.00 0.00 89 1016.6
20260507134924 15 46 1.6 1.6 0.00 0.00 0.00 89 1016.5
20260507134420 15 65 0.0 1.6 0.00 0.00 0.00 89 1016.5
20260507133916 15 110 0.0 3.2 0.00 0.00 0.00 90 1016.3
20260507133412 15 320 3.2 3.2 0.00 0.00 0.00 90 1016.4
20260507132911 15 296 3.2 4.8 0.00 0.00 0.00 90 1016.4
20260507132407 15 89 0.0 3.2 0.00 0.00 0.00 89 1016.5
20260507131905 15 14 3.2 3.2 0.00 0.00 0.00 90 1016.3
20260507131400 15 230 0.0 1.6 0.00 0.00 0.00 90 1016.4
20260507130858 15 119 0.0 1.6 0.00 0.00 0.00 90 1016.4
20260507130354 15 321 3.2 4.8 0.00 0.00 0.00 90 1016.2
20260507125853 15 87 4.8 6.4 0.00 0.00 0.00 91 1016.3
20260507125350 15 81 0.0 4.8 0.00 0.00 0.00 91 1016.2
20260507124848 15 199 1.6 3.2 0.00 0.00 0.00 91 1016.2
20260507124344 15 312 0.0 3.2 0.00 0.00 0.00 91 1016.3
20260507123843 15 89 0.0 0.0 0.00 0.00 0.00 91 1016.2
20260507123339 14 147 0.0 0.0 0.00 0.00 0.00 91 1016.1
20260507122836 14 68 0.0 3.2 0.00 0.00 0.00 91 1016.0
20260507122331 15 105 1.6 3.2 0.00 0.00 0.00 91 1016.1
20260507121828 15 325 1.6 1.6 0.00 0.00 0.00 90 1016.2
20260507121323 15 279 0.0 1.6 0.00 0.00 0.00 91 1016.3
20260507120820 15 228 0.0 3.2 0.00 0.00 0.00 91 1016.0
20260507120316 15 0 0.0 1.6 0.00 0.00 0.00 91 1016.0
20260507115812 15 299 0.0 1.6 0.00 0.00 0.00 91 1016.1
20260507115308 15 309 4.8 4.8 0.00 0.00 0.00 92 1015.9
20260507114804 15 322 0.0 6.4 0.00 0.00 0.00 92 1016.0
20260507114302 15 313 0.0 1.6 0.00 0.00 0.00 91 1016.0
20260507113759 15 9 0.0 3.2 0.00 0.00 0.00 92 1016.0
20260507113256 15 55 0.0 0.0 0.00 0.00 0.00 92 1016.1
20260507112753 15 4 1.6 1.6 0.00 0.00 0.00 92 1016.1
20260507112250 14 89 0.0 1.6 0.00 0.00 0.00 92 1016.0
20260507111748 15 103 0.0 3.2 0.00 0.00 0.00 93 1016.2
20260507111244 14 332 1.6 3.2 0.00 0.00 0.00 92 1016.1
20260507110740 14 299 0.0 1.6 0.00 0.00 0.00 92 1016.2
20260507110237 15 75 0.0 3.2 0.00 0.00 0.00 93 1016.2
20260507105734 14 2 0.0 3.2 0.00 0.00 0.00 93 1016.2
20260507105230 14 242 0.0 0.0 0.00 0.00 0.00 92 1016.2
20260507104727 14 66 0.0 1.6 0.00 0.00 0.00 93 1016.1
20260507104224 13 89 1.6 1.6 0.00 0.00 0.00 93 1016.2
20260507103720 13 99 0.0 1.6 0.00 0.00 0.00 93 1016.3
20260507103216 14 96 1.6 1.6 0.00 0.00 0.00 93 1016.4
20260507102713 14 87 1.6 1.6 0.00 0.00 0.00 93 1016.3
20260507102209 14 89 1.6 1.6 0.00 0.00 0.00 93 1016.4
20260507101706 14 85 1.6 1.6 0.00 0.00 0.00 93 1016.3
20260507101201 13 113 0.0 1.6 0.00 0.00 0.00 93 1016.5
20260507100658 13 116 3.2 3.2 0.00 0.00 0.00 93 1016.5
20260507100157 13 103 0.0 1.6 0.00 0.00 0.00 93 1016.8
20260507095654 13 103 0.0 1.6 0.00 0.00 0.00 93 1016.5
20260507095151 13 113 0.0 1.6 0.00 0.00 0.00 93 1016.6
20260507094647 13 99 0.0 1.6 0.00 0.00 0.00 92 1016.5
20260507094144 13 98 0.0 1.6 0.00 0.00 0.00 93 1016.6
20260507093642 13 102 0.0 1.6 0.00 0.00 0.00 92 1016.8
20260507093141 13 84 0.0 1.6 0.00 0.00 0.00 92 1016.9
20260507092637 13 89 0.0 1.6 0.00 0.00 0.00 92 1016.6
20260507092133 13 121 3.2 3.2 0.00 0.00 0.00 92 1016.6
20260507091630 13 107 0.0 1.6 0.00 0.00 0.00 92 1016.9
20260507091126 13 120 1.6 3.2 0.00 0.00 0.00 91 1016.8
20260507090621 13 73 0.0 1.6 0.00 0.00 0.00 91 1016.8
20260507090119 13 104 0.0 1.6 0.00 0.00 0.00 91 1016.9
20260507085616 13 82 0.0 3.2 0.00 0.00 0.00 91 1017.1
20260507085112 13 89 0.0 1.6 0.00 0.00 0.00 91 1017.2
20260507084609 14 107 0.0 3.2 0.00 0.00 0.00 91 1017.1
20260507084106 15 89 0.0 3.2 0.00 0.00 0.00 91 1017.3
20260507083603 14 116 3.2 3.2 0.00 0.00 0.00 91 1017.2
20260507083100 15 101 0.0 1.6 0.00 0.00 0.00 91 1017.0
20260507082555 15 126 0.0 1.6 0.00 0.00 0.00 91 1017.2
20260507082052 15 89 0.0 1.6 0.00 0.00 0.00 91 1017.2
20260507081548 15 63 0.0 1.6 0.00 0.00 0.00 91 1017.3
20260507081046 15 102 0.0 1.6 0.00 0.00 0.00 91 1017.3
20260507080541 15 79 1.6 3.2 0.00 0.00 0.00 91 1017.5
20260507080038 15 66 0.0 3.2 0.00 0.00 0.00 91 1017.4
20260507075533 15 0 0.0 1.6 0.00 0.00 0.00 91 1017.5
20260507075030 15 357 3.2 3.2 0.00 0.00 0.00 91 1017.4
20260507074526 15 62 0.0 1.6 0.00 0.00 0.00 91 1017.3
20260507074025 15 350 0.0 6.4 0.00 0.00 0.00 92 1017.3
20260507073521 15 14 1.6 3.2 0.00 0.00 0.00 91 1017.7
20260507073018 15 60 0.0 3.2 0.00 0.00 0.00 91 1017.5
20260507072515 15 66 0.0 3.2 0.00 0.00 0.00 91 1017.6
20260507072012 15 29 0.0 3.2 0.00 0.00 0.00 91 1017.6
20260507071509 15 100 0.0 1.6 0.00 0.00 0.00 91 1017.5
20260507071006 15 66 0.0 1.6 0.00 0.00 0.00 91 1017.5
20260507070503 15 86 3.2 3.2 0.00 0.00 0.00 91 1017.6
20260507070000 15 45 0.0 1.6 0.00 0.00 0.00 91 1017.6
20260507065456 15 55 0.0 1.6 0.00 0.00 0.00 91 1017.8
20260507064954 15 104 0.0 3.2 0.00 0.00 0.00 91 1017.7
20260507064452 15 79 0.0 1.6 0.00 0.00 0.00 92 1017.6
20260507063949 15 11 0.0 1.6 0.00 0.00 0.00 92 1017.7
20260507063446 15 39 0.0 3.2 0.00 0.00 0.00 92 1017.9
20260507062943 15 145 0.0 1.6 0.00 0.00 0.00 91 1017.8
20260507062440 15 71 1.6 3.2 0.00 0.00 0.00 91 1018.0
20260507061937 15 89 0.0 1.6 0.00 0.00 0.00 91 1017.8
20260507061436 15 102 0.0 3.2 0.00 0.00 0.00 90 1018.0
20260507060934 15 128 1.6 1.6 0.00 0.00 0.00 90 1017.6
20260507060430 15 109 0.0 1.6 0.00 0.00 0.00 90 1017.8
20260507055927 15 112 1.6 1.6 0.00 0.00 0.00 90 1017.8
20260507055422 15 83 0.0 1.6 0.00 0.00 0.00 90 1018.0
20260507054919 15 68 0.0 1.6 0.00 0.00 0.00 90 1017.8
20260507054415 15 89 0.0 0.0 0.00 0.00 0.00 90 1017.9
20260507053913 15 4 0.0 3.2 0.00 0.00 0.00 90 1017.6
20260507053410 15 344 3.2 4.8 0.00 0.00 0.00 90 1017.9
20260507052909 15 321 3.2 4.8 0.00 0.00 0.00 90 1017.8
20260507052406 15 21 0.0 4.8 0.00 0.00 0.00 90 1017.7
20260507051903 15 350 3.2 6.4 0.00 0.00 0.00 90 1017.8
20260507051401 15 4 3.2 3.2 0.00 0.00 0.00 90 1017.8
20260507050857 15 302 4.8 4.8 0.00 0.00 0.00 90 1017.7
20260507050354 15 89 0.0 1.6 0.00 0.00 0.00 90 1017.7
20260507045851 15 89 0.0 1.6 0.00 0.00 0.00 90 1017.7
20260507045347 15 0 0.0 1.6 0.00 0.00 0.00 89 1017.7
20260507044845 15 113 0.0 1.6 0.00 0.00 0.00 89 1017.7
20260507044341 15 32 0.0 3.2 0.00 0.00 0.00 89 1017.6
20260507043837 15 356 3.2 6.4 0.00 0.00 0.00 89 1017.7
20260507043334 15 14 0.0 6.4 0.00 0.00 0.00 89 1017.6
20260507042830 15 0 3.2 3.2 0.00 0.00 0.00 89 1017.4
20260507042325 16 25 0.0 3.2 0.00 0.00 0.00 89 1017.5
20260507041823 16 12 1.6 3.2 0.00 0.00 0.00 89 1017.4
20260507041319 16 299 3.2 4.8 0.00 0.00 0.00 89 1017.6
20260507040816 16 336 0.0 3.2 0.00 0.00 0.00 89 1017.3
20260507040312 16 357 1.6 1.6 0.00 0.00 0.00 88 1017.3
20260507035808 16 38 0.0 1.6 0.00 0.00 0.00 88 1017.5
20260507035306 16 44 0.0 3.2 0.00 0.00 0.00 88 1017.5
20260507034802 16 52 1.6 3.2 0.00 0.00 0.00 88 1017.4
20260507034258 16 349 3.2 3.2 0.00 0.00 0.00 87 1017.2
20260507033757 16 68 3.2 3.2 0.00 0.00 0.00 87 1017.2
20260507033254 16 22 0.0 3.2 0.00 0.00 0.00 87 1017.1
20260507032751 16 3 0.0 3.2 0.00 0.00 0.00 87 1017.4
20260507032247 16 338 3.2 3.2 0.00 0.00 0.00 87 1017.3
20260507031743 16 271 3.2 4.8 0.00 0.00 0.00 86 1017.3
20260507031241 16 260 4.8 6.4 0.00 0.00 0.00 86 1016.9
20260507030737 16 17 4.8 4.8 0.00 0.00 0.00 86 1017.1
20260507030235 16 342 6.4 9.7 0.00 0.00 0.00 86 1016.9
20260507025732 16 338 3.2 4.8 0.00 0.00 0.00 86 1017.1
20260507025229 16 325 3.2 6.4 0.00 0.00 0.00 85 1016.9
20260507024727 16 351 3.2 6.4 0.00 0.00 0.00 85 1016.9
20260507024224 16 354 3.2 8.0 0.00 0.00 0.00 85 1016.8
20260507023719 16 350 3.2 4.8 0.00 0.00 0.00 84 1016.8
20260507023216 16 28 0.0 9.7 0.00 0.00 0.00 83 1016.6
20260507022714 16 178 1.6 4.8 0.00 0.00 0.00 83 1016.9
20260507022210 17 74 0.0 4.8 0.00 0.00 0.00 82 1016.9
20260507021706 17 14 1.6 14.5 0.00 0.00 0.00 81 1016.7
20260507021201 17 46 0.0 6.4 0.00 0.00 0.00 80 1016.8
20260507020701 17 338 3.2 6.4 0.00 0.00 0.00 80 1016.9
20260507020156 17 268 0.0 6.4 0.00 0.00 0.00 79 1016.8
20260507015654 18 16 3.2 9.7 0.00 0.00 0.00 78 1016.8
20260507015151 18 327 6.4 8.0 0.00 0.00 0.00 77 1016.6
20260507014648 18 34 1.6 9.7 0.00 0.00 0.00 77 1016.6
20260507014144 18 20 1.6 4.8 0.00 0.00 0.00 77 1016.8
20260507013641 18 250 1.6 6.4 0.00 0.00 0.00 77 1016.8
20260507013138 18 236 4.8 14.5 0.00 0.00 0.00 76 1016.7
20260507012635 18 310 1.6 11.3 0.00 0.00 0.00 77 1016.6
20260507012130 18 312 11.3 16.1 0.00 0.00 0.00 78 1016.4
20260507011629 18 43 1.6 11.3 0.00 0.00 0.00 78 1016.7
20260507011125 18 327 4.8 8.0 0.00 0.00 0.00 79 1016.4
20260507010620 17 317 6.4 9.7 0.00 0.00 0.00 79 1016.5
20260507010116 18 347 3.2 8.0 0.00 0.00 0.00 78 1016.6
20260507005614 18 219 6.4 9.7 0.00 0.00 0.00 76 1016.5
20260507005109 18 329 3.2 8.0 0.00 0.00 0.00 77 1016.5
20260507004607 18 336 3.2 8.0 0.00 0.00 0.00 77 1016.7
20260507004104 18 242 6.4 9.7 0.00 0.00 0.00 78 1016.5
20260507003600 18 261 6.4 17.7 0.00 0.00 0.00 78 1016.6
20260507003055 18 19 3.2 20.9 0.00 0.00 0.00 77 1016.7
20260507002552 19 247 0.0 9.7 0.00 0.00 0.00 74 1016.5
20260507002047 18 338 3.2 12.9 0.00 0.00 0.00 76 1016.3
20260507001544 18 278 8.0 16.1 0.00 0.00 0.00 75 1016.4
20260507001042 20 261 4.8 9.7 0.00 0.00 0.00 72 1016.3
20260507000538 20 11 3.2 6.4 0.00 0.00 0.00 71 1016.4
20260507000033 20 82 3.2 11.3 0.00 0.00 0.00 71 1016.2
20260506235531 20 346 0.0 6.4 0.00 0.00 0.00 71 1016.4
20260506235021 20 200 1.6 8.0 0.00 0.00 0.00 73 1016.5
20260506234519 18 9 3.2 11.3 0.00 0.00 0.00 76 1016.4
20260506234016 19 230 3.2 9.7 0.00 0.00 0.00 74 1016.3
20260506233512 20 352 4.8 9.7 0.00 0.00 0.00 73 1016.4
20260506233009 20 299 6.4 16.1 0.00 0.00 0.00 71 1016.6
20260506232505 20 7 1.6 6.4 0.00 0.00 0.00 74 1016.2
20260506232001 18 5 0.0 14.5 0.00 0.00 0.00 76 1016.3
20260506231458 18 281 11.3 20.9 0.00 0.00 0.00 77 1016.6
20260506230956 18 294 11.3 24.1 0.00 0.00 0.00 74 1016.7
20260506230451 18 250 6.4 16.1 0.00 0.00 0.00 73 1016.4
20260506225948 20 320 9.7 19.3 0.00 0.00 0.00 70 1016.6
20260506225446 20 328 6.4 6.4 0.00 0.00 0.00 74 1016.7
20260506224943 18 238 3.2 14.5 0.00 0.00 0.00 76 1016.7
20260506224440 18 304 11.3 14.5 0.00 0.00 0.00 74 1016.8
20260506223936 18 28 3.2 14.5 0.00 0.00 0.00 74 1016.6
20260506223432 20 17 3.2 12.9 0.00 0.00 0.00 72 1016.8
20260506222929 18 357 3.2 12.9 0.00 0.00 0.00 74 1016.9
20260506222425 18 317 12.9 17.7 0.00 0.00 0.00 75 1016.7
20260506221923 18 221 4.8 20.9 0.00 0.00 0.00 73 1016.9
20260506221420 18 276 8.0 20.9 0.00 0.00 0.00 74 1016.9
20260506220918 18 301 12.9 17.7 0.00 0.00 0.00 73 1016.8
20260506220413 20 11 0.0 6.4 0.00 0.00 0.00 72 1016.9
20260506215910 18 308 4.8 22.5 0.00 0.00 0.00 71 1017.1
20260506215406 18 299 20.9 27.4 0.00 0.00 0.00 70 1017.0
20260506214901 20 259 14.5 17.7 0.00 0.00 0.00 69 1017.0
20260506214359 19 312 4.8 8.0 0.00 0.00 0.00 70 1017.1
20260506213856 19 349 1.6 11.3 0.00 0.00 0.00 71 1017.1
20260506213354 19 80 3.2 8.0 0.00 0.00 0.00 73 1017.2
20260506212851 18 310 9.7 19.3 0.00 0.00 0.00 73 1017.2
20260506212347 18 308 14.5 17.7 0.00 0.00 0.00 70 1017.2
20260506211842 19 331 3.2 14.5 0.00 0.00 0.00 70 1017.2
20260506211338 18 356 4.8 25.7 0.00 0.00 0.00 72 1017.2
20260506210835 18 272 8.0 19.3 0.00 0.00 0.00 72 1017.2
20260506210332 18 303 20.9 27.4 0.00 0.00 0.00 71 1017.4
20260506205829 19 254 11.3 17.7 0.00 0.00 0.00 70 1017.1
20260506205325 19 28 4.8 14.5 0.00 0.00 0.00 70 1017.2
20260506204822 18 102 6.4 20.9 0.00 0.00 0.00 72 1017.2
20260506204320 19 316 12.9 14.5 0.00 0.00 0.00 69 1017.2
20260506203817 18 258 4.8 19.3 0.00 0.00 0.00 69 1017.2
20260506203314 19 352 4.8 20.9 0.00 0.00 0.00 68 1017.4
20260506202811 18 19 4.8 16.1 0.00 0.00 0.00 71 1017.4
20260506202308 18 215 11.3 24.1 0.00 0.00 0.00 70 1017.5
20260506201804 18 324 6.4 17.7 0.00 0.00 0.00 70 1017.4
20260506201302 18 336 9.7 20.9 0.00 0.00 0.00 71 1017.4
20260506200759 18 325 3.2 22.5 0.00 0.00 0.00 72 1017.4
20260506200255 18 233 6.4 19.3 0.00 0.00 0.00 70 1017.6
20260506195751 19 261 9.7 9.7 0.00 0.00 0.00 71 1017.5
20260506195248 18 273 3.2 24.1 0.00 0.00 0.00 70 1017.7
20260506194745 18 192 6.4 20.9 0.00 0.00 0.00 73 1017.8
20260506194241 18 229 8.0 24.1 0.00 0.00 0.00 71 1017.7
20260506193740 18 326 19.3 24.1 0.00 0.00 0.00 71 1017.8
20260506193236 18 325 8.0 27.4 0.00 0.00 0.00 71 1017.8
20260506192732 18 290 11.3 19.3 0.00 0.00 0.00 68 1017.8
20260506192229 18 275 14.5 22.5 0.00 0.00 0.00 68 1018.1
20260506191726 18 190 0.0 14.5 0.00 0.00 0.00 66 1018.0
20260506191222 18 19 3.2 12.9 0.00 0.00 0.00 68 1018.0
20260506190720 18 355 3.2 8.0 0.00 0.00 0.00 68 1018.0
20260506190216 18 328 6.4 20.9 0.00 0.00 0.00 67 1018.1
20260506185713 18 217 8.0 14.5 0.00 0.00 0.00 67 1018.1
20260506185209 18 241 8.0 12.9 0.00 0.00 0.00 68 1017.9
20260506184707 18 324 4.8 16.1 0.00 0.00 0.00 68 1018.2
20260506184204 18 261 3.2 14.5 0.00 0.00 0.00 66 1018.3
20260506183701 18 286 12.9 17.7 0.00 0.00 0.00 68 1018.1
20260506183157 18 298 11.3 20.9 0.00 0.00 0.00 67 1018.4
20260506182654 18 304 6.4 14.5 0.00 0.00 0.00 68 1018.3
20260506182151 18 268 4.8 14.5 0.00 0.00 0.00 66 1018.4
20260506181649 18 344 1.6 20.9 0.00 0.00 0.00 67 1018.2
20260506181146 18 185 1.6 16.1 0.00 0.00 0.00 67 1018.5
20260506180643 17 250 8.0 17.7 0.00 0.00 0.00 67 1018.4
20260506180139 18 310 9.7 19.3 0.00 0.00 0.00 67 1018.5
20260506175636 18 244 6.4 14.5 0.00 0.00 0.00 67 1018.5
20260506175132 18 310 9.7 16.1 0.00 0.00 0.00 64 1018.3
20260506174631 18 211 9.7 12.9 0.00 0.00 0.00 66 1018.5
20260506174127 18 354 3.2 9.7 0.00 0.00 0.00 68 1018.4
20260506173625 18 258 4.8 9.7 0.00 0.00 0.00 67 1018.5
20260506173121 18 327 6.4 9.7 0.00 0.00 0.00 68 1018.6
20260506172619 17 346 6.4 9.7 0.00 0.00 0.00 69 1018.7